Location: Creston
(40.9870°N, 81.8938°W)
Time: 08:21:57
(UTC+00:00)

YAOGAN 1 - Pass Details

Date: 29 October 2020
Orbit: 618 x 620 km, 97.9° (Epoch: 26 November)

Event Time Altitude Azimuth Distance (km) Brightness Sun altitude
Rises 23:41:29 0° 150° (SSE) 2,884 5.8 -14.7°
Reaches altitude 10° 23:43:43 10° 144° (SE) 1,982 4.9 -15.1°
Maximum altitude 23:47:50 45° 72° (ENE) 851 2.8 -15.9°
Drops below altitude 10° 23:51:58 10° 0° (N) 1,995 5.1 -16.7°
Sets 23:54:13 0° 354° (N) 2,906 6.0 -17.1°
